IGO632 VABB-VAAH

Flight info

Callsign IGO632
Flight time 0h 24m
Altitude 33000
Route ANOLI2A ISRIS G208 APANO APANO1A
Aircraft A320/M-SDE3FGHIRWY/LB1

Departure

Time 2026-04-17 08:17
Airport Chhatrapati Shivaji Maharaj International Airport (VABB)

Arrival

Time 2026-04-17 08:42
Airport Sardar Vallabh Patel International Airport (VAAH)
Time Latitude Longitude Altitude Speed Heading
2026-04-17 07:53 19.09157 72.85366 49 ft 0 kts
2026-04-17 07:53 19.09156 72.85366 49 ft 0 kts
2026-04-17 08:05 19.09143 72.85366 49 ft 4 kts
2026-04-17 08:05 19.09116 72.85366 48 ft 4 kts
2026-04-17 08:05 19.09095 72.85356 48 ft 4 kts 64°
2026-04-17 08:05 19.09091 72.85335 44 ft 2 kts 89°
2026-04-17 08:06 19.09090 72.85319 47 ft 0 kts 89°
2026-04-17 08:09 19.09090 72.85322 49 ft 2 kts 89°
2026-04-17 08:09 19.09091 72.85346 49 ft 5 kts 89°
2026-04-17 08:09 19.09091 72.85391 49 ft 7 kts 89°
2026-04-17 08:09 19.09092 72.85455 49 ft 10 kts 89°
2026-04-17 08:10 19.09093 72.85535 49 ft 12 kts 90°
2026-04-17 08:10 19.09078 72.85599 47 ft 9 kts 150°
2026-04-17 08:10 19.09027 72.85631 49 ft 10 kts 104°
2026-04-17 08:10 19.09029 72.85711 49 ft 12 kts 87°
2026-04-17 08:11 19.09030 72.85807 49 ft 14 kts 89°
2026-04-17 08:11 19.09031 72.85918 49 ft 15 kts 89°
2026-04-17 08:11 19.09034 72.86036 48 ft 17 kts 89°
2026-04-17 08:11 19.09035 72.86162 48 ft 18 kts 90°
2026-04-17 08:12 19.09036 72.86295 48 ft 16 kts 89°
2026-04-17 08:12 19.09038 72.86422 49 ft 18 kts 89°
2026-04-17 08:12 19.09040 72.86566 49 ft 20 kts 89°
2026-04-17 08:12 19.09042 72.86720 50 ft 21 kts 89°
2026-04-17 08:13 19.09045 72.86885 50 ft 24 kts 89°
2026-04-17 08:13 19.09046 72.87041 50 ft 22 kts 89°
2026-04-17 08:13 19.09049 72.87208 50 ft 21 kts 89°
2026-04-17 08:14 19.09053 72.87529 49 ft 23 kts 90°
2026-04-17 08:14 19.09055 72.87691 49 ft 20 kts 89°
2026-04-17 08:14 19.09057 72.87830 49 ft 19 kts 89°
2026-04-17 08:14 19.09059 72.87958 49 ft 17 kts 89°
2026-04-17 08:15 19.09055 72.88042 46 ft 9 kts 120°
2026-04-17 08:15 19.09008 72.88053 48 ft 0 kts 180°
2026-04-17 08:15 19.09007 72.88053 48 ft 1 kts 180°
2026-04-17 08:15 19.08987 72.88053 46 ft 5 kts 180°
2026-04-17 08:16 19.08938 72.88053 46 ft 9 kts 180°
2026-04-17 08:16 19.08889 72.88009 46 ft 11 kts 256°
2026-04-17 08:16 19.08888 72.87985 47 ft 1 kts 269°
2026-04-17 08:16 19.08888 72.87978 47 ft 2 kts 269°
2026-04-17 08:17 19.08885 72.87800 48 ft 58 kts 269°
2026-04-17 08:17 19.08876 72.87138 51 ft 118 kts 269°
2026-04-17 08:17 19.08858 72.86096 56 ft 163 kts 269°
2026-04-17 08:17 19.08849 72.84891 739 ft 161 kts 272°
2026-04-17 08:18 19.08883 72.83726 1494 ft 153 kts 277°
2026-04-17 08:18 19.08968 72.82687 2280 ft 135 kts 289°
2026-04-17 08:18 19.09356 72.81742 2471 ft 152 kts 318°
2026-04-17 08:18 19.10375 72.81317 2536 ft 175 kts
2026-04-17 08:19 19.11676 72.81589 2585 ft 206 kts 11°
2026-04-17 08:19 19.13193 72.81830 2852 ft 234 kts
2026-04-17 08:19 19.14512 72.81969 3210 ft 249 kts
2026-04-17 08:19 19.16283 72.82121 3857 ft 260 kts
2026-04-17 08:20 19.18105 72.82262 4652 ft 265 kts
2026-04-17 08:20 19.19969 72.82400 5435 ft 272 kts
2026-04-17 08:20 19.21873 72.82541 6229 ft 278 kts
2026-04-17 08:20 19.23818 72.82688 6956 ft 283 kts
2026-04-17 08:21 19.25808 72.82840 7676 ft 289 kts
2026-04-17 08:21 19.27837 72.82998 8385 ft 296 kts
2026-04-17 08:21 19.29904 72.83159 9141 ft 301 kts
2026-04-17 08:21 19.32015 72.83323 9855 ft 307 kts
2026-04-17 08:22 19.34211 72.83494 10162 ft 328 kts
2026-04-17 08:22 19.36555 72.83676 10439 ft 346 kts
2026-04-17 08:22 19.38989 72.83866 10989 ft 353 kts
2026-04-17 08:22 19.41452 72.84060 11667 ft 356 kts
2026-04-17 08:23 19.43922 72.84254 12394 ft 358 kts
2026-04-17 08:23 19.46421 72.84450 13079 ft 360 kts
2026-04-17 08:23 19.48928 72.84647 13758 ft 363 kts
2026-04-17 08:23 19.51453 72.84845 14367 ft 365 kts
2026-04-17 08:24 19.53995 72.85043 14961 ft 367 kts
2026-04-17 08:24 19.56559 72.85243 15504 ft 372 kts
2026-04-17 08:24 19.59159 72.85445 16025 ft 376 kts
2026-04-17 08:24 19.61780 72.85648 16605 ft 379 kts
2026-04-17 08:25 19.63527 72.85784 16992 ft 381 kts
2026-04-17 08:25 19.66185 72.85992 17510 ft 385 kts
2026-04-17 08:25 19.68875 72.86203 18038 ft 390 kts
2026-04-17 08:25 19.71595 72.86418 18542 ft 393 kts
2026-04-17 08:26 19.74331 72.86633 19058 ft 395 kts
2026-04-17 08:26 19.76999 72.86846 19525 ft 399 kts
2026-04-17 08:26 19.79776 72.87064 20013 ft 402 kts
2026-04-17 08:26 19.82576 72.87282 20504 ft 405 kts
2026-04-17 08:27 19.85403 72.87500 20973 ft 409 kts
2026-04-17 08:27 19.88254 72.87720 21423 ft 413 kts
2026-04-17 08:27 19.91131 72.87946 21864 ft 416 kts
2026-04-17 08:27 19.94017 72.88174 22317 ft 420 kts
2026-04-17 08:28 19.96944 72.88406 22794 ft 423 kts
2026-04-17 08:28 19.99891 72.88641 23290 ft 426 kts
2026-04-17 08:28 20.02853 72.88877 23703 ft 429 kts
2026-04-17 08:28 21.60012 72.98165 17337 ft 351 kts 349°
2026-04-17 08:29 21.62254 72.97242 17193 ft 343 kts 323°
2026-04-17 08:29 21.63835 72.95399 16782 ft 335 kts 296°
2026-04-17 08:29 21.64572 72.93049 16316 ft 332 kts 283°
2026-04-17 08:29 21.65509 72.90788 15884 ft 334 kts 307°
2026-04-17 08:30 21.67300 72.89219 15366 ft 339 kts 334°
2026-04-17 08:30 21.69608 72.88674 14832 ft 344 kts 355°
2026-04-17 08:30 21.72002 72.88520 14363 ft 344 kts 354°
2026-04-17 08:30 21.74379 72.88252 13953 ft 342 kts 351°
2026-04-17 08:31 21.76719 72.87864 13569 ft 339 kts 348°
2026-04-17 08:31 21.79025 72.87389 13135 ft 337 kts 347°
2026-04-17 08:31 21.81310 72.86865 12714 ft 334 kts 346°
2026-04-17 08:31 22.58373 72.69029 7573 ft 324 kts 342°
2026-04-17 08:32 22.60500 72.68393 7465 ft 311 kts 343°
2026-04-17 08:32 22.62570 72.67797 7192 ft 306 kts 343°
2026-04-17 08:32 22.64620 72.67213 6852 ft 303 kts 343°
2026-04-17 08:32 22.66655 72.66631 6511 ft 302 kts 343°
2026-04-17 08:33 22.68681 72.66047 6175 ft 300 kts 343°
2026-04-17 08:33 22.70693 72.65463 5794 ft 299 kts 343°
2026-04-17 08:33 22.72694 72.64878 5413 ft 297 kts 343°
2026-04-17 08:33 22.74682 72.64297 5053 ft 297 kts 342°
2026-04-17 08:34 22.76676 72.63714 4710 ft 296 kts 342°
2026-04-17 08:34 23.01769 72.75044 2997 ft 316 kts 42°
2026-04-17 08:34 23.03562 72.76284 2944 ft 299 kts 20°
2026-04-17 08:34 23.05425 72.77255 2558 ft 300 kts 35°
2026-04-17 08:35 23.06976 72.78774 2135 ft 300 kts 43°
2026-04-17 08:35 23.08388 72.80336 1990 ft 278 kts 45°
2026-04-17 08:35 23.09675 72.81771 2002 ft 253 kts 45°
2026-04-17 08:35 23.10846 72.83078 2002 ft 232 kts 45°
2026-04-17 08:36 23.11993 72.84316 2021 ft 234 kts 37°
2026-04-17 08:36 23.13442 72.85001 2013 ft 228 kts
2026-04-17 08:36 23.14955 72.84716 2013 ft 221 kts 330°
2026-04-17 08:36 23.16222 72.83793 2005 ft 219 kts 316°
2026-04-17 08:37 23.17301 72.82618 2016 ft 221 kts 311°
2026-04-17 08:37 23.18332 72.81387 2006 ft 215 kts 311°
2026-04-17 08:37 23.19154 72.80131 1998 ft 198 kts 293°
2026-04-17 08:37 23.19554 72.78739 2000 ft 190 kts 276°
2026-04-17 08:38 23.19542 72.77323 2031 ft 187 kts 260°
2026-04-17 08:38 23.19144 72.75997 2018 ft 185 kts 243°
2026-04-17 08:38 23.18405 72.74879 2005 ft 175 kts 226°
2026-04-17 08:38 23.17562 72.73982 2013 ft 167 kts 226°
2026-04-17 08:39 23.16749 72.73108 2012 ft 167 kts 225°
2026-04-17 08:39 23.15904 72.72202 1967 ft 165 kts 227°
2026-04-17 08:39 23.15139 72.71383 1820 ft 149 kts 226°
2026-04-17 08:39 23.14425 72.70618 1662 ft 141 kts 226°
2026-04-17 08:40 23.13735 72.69879 1505 ft 141 kts 228°
2026-04-17 08:40 23.13041 72.69136 1325 ft 140 kts 228°
2026-04-17 08:40 23.12351 72.68397 1159 ft 140 kts 226°
2026-04-17 08:40 23.11676 72.67676 998 ft 138 kts 228°
2026-04-17 08:41 23.10993 72.66945 816 ft 135 kts 225°
2026-04-17 08:41 23.10306 72.66210 639 ft 136 kts 225°
2026-04-17 08:41 23.09649 72.65497 464 ft 136 kts 225°
2026-04-17 08:41 23.08967 72.64763 252 ft 136 kts 223°
2026-04-17 08:42 23.08332 72.64092 207 ft 114 kts 225°
2026-04-17 08:42 23.07882 72.63616 195 ft 64 kts 224°
2026-04-17 08:42 23.07712 72.63372 194 ft 25 kts 269°
2026-04-17 08:42 23.07679 72.63201 193 ft 23 kts 257°
2026-04-17 08:43 23.07602 72.63063 203 ft 21 kts 225°
2026-04-17 08:43 23.07504 72.62957 190 ft 21 kts 224°
2026-04-17 08:43 23.07398 72.62849 194 ft 16 kts 227°
2026-04-17 08:43 23.07312 72.62755 200 ft 20 kts 221°
2026-04-17 08:44 23.07207 72.62651 189 ft 22 kts 227°
2026-04-17 08:44 23.07101 72.62535 200 ft 23 kts 223°
2026-04-17 08:44 23.06995 72.62421 200 ft 19 kts 225°
2026-04-17 08:44 23.06900 72.62317 206 ft 21 kts 225°
2026-04-17 08:45 23.06833 72.62223 197 ft 11 kts 281°
2026-04-17 08:45 23.06882 72.62185 194 ft 9 kts 312°
2026-04-17 08:45 23.06910 72.62127 195 ft 7 kts 261°
2026-04-17 08:45 23.06891 72.62073 198 ft 9 kts 279°
2026-04-17 08:46 23.06937 72.62021 199 ft 11 kts 314°
2026-04-17 08:46 23.06997 72.61953 205 ft 14 kts 311°
2026-04-17 08:46 23.07070 72.61872 207 ft 17 kts 315°
2026-04-17 08:46 23.07129 72.61806 199 ft 7 kts 314°
2026-04-17 08:47 23.07165 72.61823 210 ft 7 kts 44°
2026-04-17 08:47 23.07177 72.61835 208 ft 2 kts 44°
2026-04-17 08:47 23.07183 72.61842 206 ft 0 kts 44°